Weather History for PAFE - March, 2013

Change the Weather History Date:

Friday, March 15, 2013

  Actual Average Record
Temperature  
Mean Temperature 28 °F -  
Max Temperature 30 °F 37 °F 46 °F (2005)
Min Temperature 26 °F 27 °F 6 °F (2006)
Degree Days  
Heating Degree Days 37    
Moisture  
Dew Point 24 °F    
Average Humidity 82    
Maximum Humidity 86    
Minimum Humidity 64    
Precipitation  
Precipitation 0.01 in - - ()
Sea Level Pressure  
Sea Level Pressure 29.91 in    
Wind  
Wind Speed 8 mph (NE)    
Max Wind Speed 12 mph    
Max Gust Speed 18 mph    
Visibility 4 miles    
Events      
Averages and records for this station are not official NWS values.
T = Trace of Precipitation, MM = Missing Value Source: NWS Daily Summary

Daily Weather History Graph

Daily Weather History Graph

Search for Another Location

Airport or City:

Trip Planner

Search our weather history database for the weather conditions in past years. The results will help you decide how hot, cold, wet, or windy it might be!

Date:

Astronomy

Mar. 15, 2013 Rise Set
Actual Time 7:10 AM AKDT 6:59 PM AKDT
Civil Twilight 6:32 AM AKDT 7:37 PM AKDT
Nautical Twilight 5:47 AM AKDT 8:22 PM AKDT
Astronomical Twilight 5:00 AM AKDT 9:10 PM AKDT
Moon 8:12 AM AKDT (3/15) No Moon Set
Length of Visible Light 13h 05m
Length of Day
11h 49m
Waxing Crescent, 16% of the Moon is Illuminated
Mar 15
Waxing Crescent
Mar 19
First Quarter
Mar 27
Full
Apr 2
Last Quarter
Apr 10
New

Hourly Weather History & Observations

Time (AKDT) Temp. Windchill Dew Point Humidity Pressure Visibility Wind Dir Wind Speed Gust Speed Precip Events Conditions
12:16 AM 28.4 °F 21.2 °F 17.6 °F 64% 29.91 in 9.0 mi NE 6.9 mph - N/A   Overcast
12:36 AM 28.4 °F 22.2 °F 17.6 °F 64% 29.91 in 8.0 mi NNE 5.8 mph - N/A   Overcast
12:56 AM 26.6 °F 18.2 °F 19.4 °F 74% 29.91 in 4.0 mi NE 8.1 mph - N/A   Overcast
1:16 AM 26.6 °F 19.1 °F 19.4 °F 74% 29.91 in 4.0 mi NE 6.9 mph 16.1 mph N/A   Overcast
1:36 AM 26.6 °F 18.2 °F 19.4 °F 74% 29.91 in 5.0 mi ENE 8.1 mph - N/A   Overcast
1:56 AM 26.6 °F 20.0 °F 19.4 °F 74% 29.91 in 2.5 mi ENE 5.8 mph 17.3 mph N/A   Overcast
2:16 AM 26.6 °F 18.2 °F 21.2 °F 80% 29.91 in 2.5 mi NE 8.1 mph - N/A   Overcast
2:36 AM 26.6 °F 17.5 °F 21.2 °F 80% 29.91 in 3.0 mi NE 9.2 mph - N/A   Overcast
2:56 AM 26.6 °F 19.1 °F 21.2 °F 80% 29.91 in 2.5 mi ENE 6.9 mph - N/A   Overcast
3:16 AM 26.6 °F 17.5 °F 21.2 °F 80% 29.90 in 1.8 mi NE 9.2 mph 17.3 mph N/A   Overcast
3:36 AM 26.6 °F 17.5 °F 21.2 °F 80% 29.90 in 1.8 mi ENE 9.2 mph - N/A   Overcast
3:56 AM 26.6 °F 17.5 °F 21.2 °F 80% 29.89 in 1.5 mi ENE 9.2 mph 17.3 mph N/A   Overcast
4:16 AM 26.6 °F 16.2 °F 21.2 °F 80% 29.88 in 1.2 mi NE 11.5 mph 18.4 mph N/A   Overcast
4:36 AM 26.6 °F 17.5 °F 21.2 °F 80% 29.88 in 1.8 mi ENE 9.2 mph - N/A   Overcast
4:56 AM 26.6 °F 18.2 °F 23.0 °F 86% 29.87 in 1.2 mi ENE 8.1 mph - N/A   Overcast
5:16 AM 26.6 °F 19.1 °F 23.0 °F 86% 29.86 in 1.5 mi NE 6.9 mph - N/A   Overcast
5:36 AM 28.4 °F 19.7 °F 23.0 °F 80% 29.86 in 1.8 mi ENE 9.2 mph - N/A   Overcast
5:56 AM 28.4 °F 19.1 °F 23.0 °F 80% 29.85 in 2.5 mi ENE 10.4 mph - N/A   Overcast
6:16 AM 28.4 °F 19.7 °F 23.0 °F 80% 29.85 in 2.0 mi ENE 9.2 mph 16.1 mph N/A   Overcast
6:36 AM 28.4 °F 20.4 °F 23.0 °F 80% 29.85 in 1.8 mi ENE 8.1 mph 18.4 mph N/A   Overcast
6:56 AM 28.4 °F 19.1 °F 23.0 °F 80% 29.84 in 1.5 mi ENE 10.4 mph 16.1 mph N/A   Overcast
7:16 AM 28.4 °F 20.4 °F 23.0 °F 80% 29.84 in 0.8 mi ENE 8.1 mph 17.3 mph N/A   Overcast
7:36 AM 28.4 °F 19.1 °F 24.8 °F 86% 29.84 in 1.0 mi ENE 10.4 mph - N/A   Overcast
7:56 AM 28.4 °F 20.4 °F 23.0 °F 80% 29.84 in 1.0 mi ENE 8.1 mph - N/A   Overcast
8:16 AM 28.4 °F 19.7 °F 24.8 °F 86% 29.84 in 1.2 mi ENE 9.2 mph 16.1 mph N/A   Overcast
8:36 AM 28.4 °F 20.4 °F 24.8 °F 86% 29.84 in 1.2 mi ENE 8.1 mph - N/A   Overcast
8:56 AM 28.4 °F 19.7 °F 24.8 °F 86% 29.84 in 1.2 mi ENE 9.2 mph - N/A   Overcast
9:16 AM 28.4 °F 19.7 °F 24.8 °F 86% 29.84 in 1.2 mi ENE 9.2 mph 16.1 mph N/A   Overcast
9:36 AM 28.4 °F 19.1 °F 24.8 °F 86% 29.85 in 1.8 mi NE 10.4 mph 18.4 mph N/A   Overcast
9:56 AM 28.4 °F 19.7 °F 24.8 °F 86% 29.86 in 1.2 mi NE 9.2 mph - N/A   Overcast
10:16 AM 28.4 °F 19.1 °F 24.8 °F 86% 29.86 in 1.2 mi ENE 10.4 mph 16.1 mph N/A   Overcast
10:36 AM 28.4 °F 19.7 °F 24.8 °F 86% 29.87 in 1.2 mi NE 9.2 mph 16.1 mph N/A   Overcast
10:56 AM 28.4 °F 21.2 °F 24.8 °F 86% 29.87 in 1.5 mi NNE 6.9 mph - N/A   Overcast
11:16 AM 30.2 °F 22.6 °F 24.8 °F 80% 29.88 in 1.5 mi ENE 8.1 mph - N/A   Overcast
11:36 AM 30.2 °F 23.4 °F 24.8 °F 80% 29.89 in 1.8 mi ENE 6.9 mph - N/A   Overcast
11:56 AM 30.2 °F 21.3 °F 24.8 °F 80% 29.90 in 1.5 mi NE 10.4 mph - N/A   Overcast
12:16 PM 30.2 °F 22.6 °F 24.8 °F 80% 29.90 in 1.5 mi NE 8.1 mph - N/A   Overcast
12:36 PM 30.2 °F 21.3 °F 26.6 °F 86% 29.91 in 1.8 mi NE 10.4 mph - N/A   Overcast
12:56 PM 30.2 °F 21.3 °F 24.8 °F 80% 29.92 in 3.0 mi NE 10.4 mph - N/A   Overcast
1:16 PM 30.2 °F 23.4 °F 26.6 °F 86% 29.92 in 5.0 mi NE 6.9 mph - N/A   Overcast
1:36 PM 30.2 °F 22.6 °F 26.6 °F 86% 29.92 in 6.0 mi NE 8.1 mph - N/A   Overcast
1:56 PM 30.2 °F 23.4 °F 26.6 °F 86% 29.92 in 3.0 mi ENE 6.9 mph - N/A   Overcast
2:16 PM 30.2 °F 23.4 °F 26.6 °F 86% 29.92 in 5.0 mi NE 6.9 mph - N/A   Overcast
2:36 PM 30.2 °F 24.3 °F 26.6 °F 86% 29.92 in 7.0 mi NNE 5.8 mph - N/A   Overcast
2:56 PM 30.2 °F 22.6 °F 26.6 °F 86% 29.92 in 5.0 mi ENE 8.1 mph - 0.01 in   Overcast
3:16 PM 30.2 °F 21.9 °F 26.6 °F 86% 29.92 in 8.0 mi ENE 9.2 mph - N/A   Overcast
3:36 PM 30.2 °F 23.4 °F 26.6 °F 86% 29.93 in 8.0 mi NE 6.9 mph - N/A   Overcast
3:56 PM 30.2 °F 21.9 °F 26.6 °F 86% 29.93 in 5.0 mi NE 9.2 mph - N/A   Overcast
4:16 PM 30.2 °F 23.4 °F 26.6 °F 86% 29.94 in 7.0 mi NE 6.9 mph - N/A   Overcast
4:36 PM 30.2 °F 22.6 °F 26.6 °F 86% 29.94 in 10.0 mi NE 8.1 mph - N/A   Overcast
4:56 PM 30.2 °F 22.6 °F 26.6 °F 86% 29.95 in 10.0 mi NE 8.1 mph - N/A   Overcast
5:16 PM 30.2 °F 23.4 °F 26.6 °F 86% 29.95 in 10.0 mi ENE 6.9 mph - N/A   Overcast
5:36 PM 30.2 °F 23.4 °F 26.6 °F 86% 29.95 in 10.0 mi ENE 6.9 mph - N/A   Overcast
5:56 PM 30.2 °F 24.3 °F 26.6 °F 86% 29.95 in 10.0 mi NE 5.8 mph - N/A   Overcast
6:16 PM 30.2 °F 22.6 °F 24.8 °F 80% 29.95 in 9.0 mi ENE 8.1 mph - N/A   Overcast
6:36 PM 30.2 °F 21.3 °F 24.8 °F 80% 29.95 in 10.0 mi NE 10.4 mph 17.3 mph N/A   Overcast
6:56 PM 30.2 °F 21.9 °F 24.8 °F 80% 29.95 in 10.0 mi ENE 9.2 mph - N/A   Overcast
7:16 PM 30.2 °F 21.3 °F 24.8 °F 80% 29.95 in 4.0 mi NE 10.4 mph - N/A   Overcast
7:36 PM 30.2 °F 21.9 °F 24.8 °F 80% 29.96 in 3.0 mi ENE 9.2 mph - N/A   Overcast
7:56 PM 30.2 °F 23.4 °F 24.8 °F 80% 29.97 in 1.5 mi NE 6.9 mph - N/A   Overcast
8:16 PM 30.2 °F 22.6 °F 24.8 °F 80% 29.97 in 2.0 mi NE 8.1 mph - N/A   Overcast
8:36 PM 28.4 °F 19.1 °F 24.8 °F 86% 29.97 in 1.5 mi NE 10.4 mph - N/A   Overcast
9:56 PM 28.4 °F 22.2 °F 24.8 °F 86% 29.98 in 5.0 mi ENE 5.8 mph - N/A   Overcast
10:16 PM 28.4 °F 21.2 °F 24.8 °F 86% 29.98 in 8.0 mi ENE 6.9 mph - N/A   Overcast
10:36 PM 28.4 °F 23.3 °F 24.8 °F 86% 29.98 in 10.0 mi East 4.6 mph - N/A   Overcast
10:56 PM 28.4 °F 24.6 °F 24.8 °F 86% 29.98 in 10.0 mi ENE 3.5 mph - N/A   Overcast
11:16 PM 28.4 °F 23.3 °F 24.8 °F 86% 29.99 in 10.0 mi ENE 4.6 mph - N/A   Overcast
11:36 PM 28.4 °F 23.3 °F 24.8 °F 86% 29.99 in 10.0 mi East 4.6 mph - N/A   Overcast
11:56 PM 28.4 °F 20.4 °F 24.8 °F 86% 30.00 in 10.0 mi ENE 8.1 mph - N/A   Overcast